Regional Weather Roundup
Issued by NWS

Home | Current Version | Previous Version | Graphics & Text | Print | Product List | Glossary Off
Versions: 1 2 3 4 5 6 7 8 9 10 11 12 13 14 15 16 17 18 19 20 21 22 23 24 25 26 27 28 29 30 31 32 33 34 35 36 37 38 39 40 41 42 43 44 45 46 47 48 49 50

422
ASUS43 KTOP 190308
RWRKS

WEATHER ROUNDUP FOR KANSAS
NATIONAL WEATHER SERVICE GOODLAND KS
900 PM CST SAT FEB 18 2017

NOTE:  "FAIR" INDICATES FEW OR NO CLOUDS BELOW 12,000 FEET WITH NO
SIGNIFICANT WEATHER AND/OR OBSTRUCTIONS TO VISIBILITY.

KSZ001>006-013>018-027>032-041>047-190400-
NORTHWEST KANSAS

CITY           SKY/WX    TMP DP  RH WIND       PRES   REMARKS
GOODLAND       CLOUDY    44  28  53 S10       29.73S
HAYS           CLEAR     55  41  59 S14       29.77R
HILL CITY      CLOUDY    49  35  58 CALM      29.74R
RUSSELL        CLEAR     55  39  54 S14       29.76R
$$

KSZ061>065-074>080-084>089-190400-
SOUTHWEST KANSAS

CITY           SKY/WX    TMP DP  RH WIND       PRES   REMARKS
DODGE CITY     CLEAR     53  42  66 SE16      29.77R
ELKHART          N/A     52  29  41 S14         N/A
GARDEN CITY    CLOUDY    52  35  52 SE12      29.77R
GREAT BEND     CLEAR     53  44  71 S12       29.79R
LIBERAL        CLOUDY    52  30  43 SE9       29.80R
PRATT          CLEAR     51  45  81 S10       29.82R
$$

KSZ066>073-081>083-090>101-190400-
SOUTHEAST KANSAS

CITY           SKY/WX    TMP DP  RH WIND       PRES   REMARKS
CHANUTE        CLEAR     52  48  86 S10       29.85R
COFFEYVILLE    CLEAR     51  48  89 SE5       29.87R
HUTCHINSON     MOCLDY    53  45  74 S8        29.81R
MEDICINE LODGE   N/A     53  48  83 S6        29.82R
NEWTON         CLEAR     54  44  69 S9        29.84R
PARSONS        CLEAR     48  45  89 CALM      29.87R
WICHITA INTL   CLEAR     52  46  80 S8        29.83R
WICHITA JABRA  CLEAR     55  48  77 S12       29.83R
WICHITA MCCONL CLEAR     53  45  75 S9        29.83R
WINFIELD       CLEAR     53  47  79 SE7       29.86R
$$

KSZ007>012-019>026-033>040-048>060-102>105-190400-
NORTHEAST KANSAS

CITY           SKY/WX    TMP DP  RH WIND       PRES   REMARKS
CONCORDIA      MOCLDY    55  41  59 S10       29.78R
EMPORIA        CLEAR     56  49  77 S14       29.82R
LAWRENCE       CLEAR     54  43  66 E7        29.82R
MANHATTAN      CLOUDY    48  40  73 CALM      29.79R
MARYSVILLE     CLOUDY    54  37  54 SE7       29.79R
OLATHE IND     CLEAR     52  44  74 S8        29.83S
OLATHE EXE     CLEAR     55  46  71 S6        29.83R
SALINA         PTCLDY    56  43  61 S7        29.80R
TOPEKA BILLARD PTCLDY    53  40  61 E3        29.80R
TOPEKA FORBES  CLEAR     56  41  57 S7        29.81R
$$




USA.gov is the U.S. government's official web portal to all federal, state and local government web resources and services.